Wetbulb
71.97 73.50 74.98 74.76 73.86 73.33 72.87 72.80 72.70 73.47 75.16 75.22 74.74 74.36 74.11 73.77 73.17 72.45 72.50 73.54 73.33 73.57 73.21 72.94 73.05 72.27 73.15 72.63 71.89 71.25 71.22 70.96 70.79 70.76 70.90 71.25 71.25 70.84 71.00 72.14 71.95 69.33 70.11
73.05 73.30 74.42 74.80 74.10 73.08 72.61 72.92 73.53 73.43 74.92 74.72 75.02 74.20 74.07 73.66 72.95 72.07 72.34 73.00 73.75 73.51 72.52 72.50 72.01 72.37 72.39 71.38 70.88 70.58 70.06 69.58 68.87 69.38 69.75 69.30 70.31 70.28 70.35 70.66 71.90 70.10 70.02
72.40 73.12 73.60 74.48 74.10 73.58 73.33 73.83 73.87 73.70 74.71 74.67 74.89 74.94 73.99 73.60 72.72 71.80 72.01 73.14 73.83 73.04 71.96 70.94 70.92 72.68 71.67 70.73 69.71 68.97 68.59 67.42 66.67 67.76 67.81 66.33 67.77 69.25 69.61 69.79 71.39 71.13 71.07
72.86 73.23 72.88 74.21 74.15 73.64 73.46 73.39 73.34 74.00 74.53 74.43 74.56 74.84 73.93 73.45 72.43 71.64 72.51 73.18 73.45 72.98 71.25 71.49 71.50 71.67 70.73 69.97 68.34 67.57 67.09 66.55 65.60 66.91 66.50 65.67 66.03 68.62 68.83 69.22 69.60 70.34 71.38
72.22 72.95 72.73 74.04 74.24 73.86 73.34 73.06 73.06 73.62 74.19 74.11 73.99 73.85 73.83 73.87 72.32 71.63 72.68 73.20 73.06 72.50 71.78 71.14 71.15 71.10 70.46 69.09 67.81 67.51 66.91 66.14 66.83 68.13 67.29 67.46 66.76 67.51 68.20 68.67 68.27 69.16 69.39
71.24 71.96 72.77 73.46 73.87 73.70 73.29 73.50 73.10 73.29 73.90 73.81 73.62 73.51 73.24 73.42 72.98 72.54 72.42 72.24 71.67 71.30 71.42 72.03 71.26 71.02 70.25 68.47 67.95 67.63 66.75 66.30 67.85 67.14 66.81 67.30 66.69 67.63 67.91 67.69 67.76 67.80 68.11
70.68 71.67 72.87 73.60 73.63 73.63 73.01 73.35 73.10 73.07 73.49 73.54 73.25 73.12 73.14 72.92 71.22 70.75 72.12 71.67 71.35 71.35 71.27 71.58 71.36 70.78 70.30 68.91 68.06 67.16 65.83 66.05 66.63 66.91 67.13 66.93 66.86 67.71 67.59 67.06 66.77 66.90 66.94
71.06 71.46 72.70 72.20 72.81 73.24 73.17 72.46 72.59 72.71 72.96 73.03 73.00 72.91 72.87 72.20 71.58 70.82 71.24 71.61 71.31 70.71 70.84 70.86 70.87 70.66 70.37 69.21 68.12 67.12 65.48 66.36 66.41 66.56 67.09 66.64 67.70 67.36 67.05 66.49 66.24 66.10 65.94
70.67 70.70 71.78 72.26 71.70 71.76 72.09 71.51 71.48 72.31 72.43 72.30 72.26 72.28 71.71 70.78 70.72 70.02 70.84 71.31 71.01 70.43 70.28 70.00 69.67 69.23 69.23 69.44 68.21 66.93 65.40 65.92 66.79 66.43 66.76 66.56 67.96 67.17 66.73 66.23 65.85 65.58 65.51
68.38 70.93 70.71 71.48 71.32 70.38 71.52 70.54 70.26 70.60 70.95 71.31 71.13 70.34 69.08 68.74 69.29 70.13 69.78 70.42 70.75 70.56 69.70 68.92 68.62 68.29 67.82 67.35 66.63 66.40 66.22 65.82 66.82 66.70 66.67 66.43 66.90 66.42 66.12 65.69 65.41 65.05 64.89
62.51 61.72 68.25 70.95 69.87 69.17 71.09 69.82 69.41 69.52 69.50 69.03 68.33 67.12 67.31 67.98 68.00 67.90 67.99 68.63 69.89 69.94 68.89 68.14 67.49 66.81 66.43 66.07 65.54 65.09 64.71 66.05 65.31 65.79 66.66 67.28 67.73 66.76 65.68 65.09 64.79 64.51 63.97
59.40 60.45 61.99 70.15 68.58 68.55 70.20 69.35 68.23 67.88 67.82 67.90 68.49 67.94 67.97 67.75 67.81 67.99 66.83 67.85 69.23 69.12 68.73 67.84 66.94 65.68 64.34 64.61 63.87 63.24 64.10 65.26 64.79 65.00 66.17 66.63 66.37 68.05 67.42 66.48 65.64 65.11 64.53
60.49 60.15 59.53 68.43 68.32 67.92 69.99 69.74 68.01 66.96 66.97 66.77 66.71 66.75 67.28 67.21 67.23 67.77 67.61 67.52 67.82 66.32 66.53 66.61 65.90 64.71 64.51 64.64 64.97 64.81 64.87 64.78 64.86 65.35 64.50 66.14 66.26 67.05 68.20 68.31 68.29 67.59 66.70
59.98 60.04 61.30 66.38 66.65 67.97 70.31 68.78 67.59 66.94 66.64 67.64 67.89 67.10 66.94 67.35 66.61 66.73 66.69 66.70 66.55 65.90 65.95 65.97 65.68 65.28 65.00 64.84 65.17 65.34 65.62 65.72 66.38 66.59 64.31 63.53 64.37 65.97 67.30 68.21 68.66 68.74 68.97
60.67 61.72 61.27 66.83 65.45 68.90 69.46 69.56 68.87 67.52 67.34 66.26 66.70 66.82 66.85 66.35 65.73 66.12 65.95 66.27 66.18 65.85 65.61 64.89 64.63 64.25 63.96 64.14 65.26 65.91 66.24 66.87 67.17 67.28 67.32 62.42 63.58 64.55 65.51 66.52 67.69 68.61 68.94
61.80 62.35 65.40 65.86 65.49 67.65 68.25 68.93 68.88 69.05 67.67 68.19 66.65 65.97 65.32 65.48 65.24 64.93 64.94 64.92 65.01 65.52 65.48 65.06 64.34 63.36 63.55 65.31 65.41 65.68 65.91 66.96 67.21 67.30 67.46 65.93 64.03 64.83 65.78 67.08 68.03 68.78 69.06
61.55 62.35 62.81 64.43 64.88 66.42 67.48 68.36 68.96 69.24 68.37 68.53 68.68 67.26 67.13 67.01 66.24 66.10 65.48 66.42 67.05 67.29 66.17 65.61 64.82 64.99 64.94 65.16 64.65 65.24 66.10 66.66 67.12 66.91 66.45 67.93 66.62 63.40 65.42 67.26 67.91 68.28 68.48
61.83 62.23 62.88 64.35 65.14 65.70 66.01 68.07 68.71 69.16 69.27 69.86 69.72 69.59 68.32 67.88 67.77 67.24 67.11 67.40 67.92 67.15 66.39 65.79 65.39 64.84 64.55 64.20 63.51 64.04 65.48 66.50 66.56 66.61 66.77 66.36 66.96 66.58 65.34 66.39 67.47 66.90 66.83
62.35 61.76 61.99 64.37 65.78 65.34 65.72 66.67 67.21 68.15 68.75 69.19 69.19 69.16 69.31 68.77 68.47 67.43 67.47 67.65 67.40 67.10 66.22 65.63 65.10 64.84 64.01 63.97 63.38 64.69 66.02 65.98 65.72 65.50 65.66 66.47 67.43 67.31 66.70 64.95 64.60 64.32 64.96
61.96 61.94 62.19 62.96 65.37 65.51 65.64 66.13 66.40 66.95 66.74 67.03 67.20 67.59 67.95 67.91 67.72 67.27 66.54 66.74 66.72 66.63 66.20 66.02 64.88 65.00 64.28 63.96 63.78 63.79 64.64 65.27 65.70 65.76 65.49 65.73 66.01 66.05 65.47 65.27 65.37 65.02 63.21
61.71 62.49 62.25 62.30 63.02 64.78 65.16 64.43 64.96 64.35 65.05 65.99 66.59 67.46 67.81 67.99 67.98 67.59 67.36 66.90 67.13 66.44 66.47 65.49 65.35 64.44 64.22 65.31 64.90 64.20 64.37 64.89 64.96 65.43 65.71 64.74 64.69 64.64 64.31 64.15 64.07 64.52 64.46
61.01 61.58 61.89 61.91 62.94 64.55 64.76 66.15 65.00 66.16 66.92 67.09 67.51 67.16 67.63 67.18 67.16 66.66 66.52 66.70 65.93 64.14 63.46 63.48 64.29 63.45 64.84 67.19 63.35 63.35 59.75 60.82 62.95 63.01 63.87 63.42 63.06 63.18 62.77 62.64 62.68 63.06 64.42
60.75 60.94 60.86 61.19 63.25 64.28 64.91 65.62 66.26 66.52 66.85 66.74 66.87 66.50 67.42 67.53 68.06 67.66 67.19 66.53 65.21 64.45 62.66 63.17 63.69 62.13 62.82 65.11 64.65 62.11 58.25 56.92 57.92 61.93 62.44 62.74 61.27 61.56 61.77 62.01 61.65 61.63 61.81
60.17 61.27 61.91 61.13 61.94 63.19 64.77 65.34 63.83 61.62 61.68 63.76 63.70 65.66 65.32 65.63 66.48 66.80 66.39 66.17 65.64 65.06 64.58 63.32 62.10 60.46 60.05 59.09 60.57 62.02 61.18 59.64 55.49 54.20 58.99 58.81 60.15 58.77 59.25 59.98 59.81 60.16 60.56
59.62 59.76 60.85 61.79 61.99 62.82 63.34 62.79 62.00 61.09 61.58 62.49 63.24 63.20 64.12 64.70 65.52 65.86 65.86 65.07 64.81 64.48 63.97 62.11 60.60 59.63 60.17 59.58 59.32 59.43 59.15 59.32 58.93 56.16 54.62 53.46 57.11 57.76 58.72 58.38 57.95 58.09 58.99
58.98 60.58 60.39 61.16 60.61 61.17 61.95 62.32 62.13 62.10 62.29 61.92 61.86 60.95 62.81 63.88 64.93 64.91 65.12 64.93 64.69 64.50 62.85 61.91 62.09 61.40 60.84 60.30 60.23 59.99 59.05 57.70 57.23 57.20 55.22 53.09 52.58 55.13 56.78 57.27 56.81 57.14 57.11
MSLP
1006.17 1007.69 1008.97 1009.41 1010.02 1010.38 1010.64 1010.79 1010.98 1011.28 1011.53 1011.79 1012.19 1012.62 1012.99 1013.25 1013.46 1013.65 1013.91 1014.15 1014.47 1014.52 1014.64 1014.92 1015.15 1015.34 1015.39 1015.59 1015.74 1015.90 1016.06 1016.18 1016.25 1016.24 1016.28 1016.27 1016.19 1016.21 1016.18 1016.01 1015.96 1016.17 1016.38
1006.32 1007.61 1008.83 1009.29 1009.92 1010.42 1010.63 1010.89 1011.08 1011.37 1011.64 1011.96 1012.27 1012.67 1013.11 1013.37 1013.65 1013.88 1014.12 1014.27 1014.51 1014.73 1014.95 1015.24 1015.56 1015.68 1015.82 1016.02 1016.27 1016.42 1016.54 1016.65 1016.61 1016.59 1016.54 1016.66 1016.70 1016.61 1016.57 1016.54 1016.48 1016.63 1016.68
1006.59 1007.72 1008.84 1009.29 1009.79 1010.38 1010.68 1010.94 1011.20 1011.43 1011.73 1012.03 1012.32 1012.62 1013.11 1013.53 1013.88 1014.10 1014.31 1014.50 1014.65 1014.94 1015.31 1015.60 1015.89 1016.07 1016.29 1016.55 1016.69 1016.79 1016.91 1016.91 1016.74 1016.54 1016.55 1016.55 1017.01 1017.09 1017.04 1017.02 1016.91 1016.91 1016.91
1006.68 1007.99 1008.63 1009.42 1009.84 1010.37 1010.81 1011.04 1011.32 1011.52 1011.78 1012.15 1012.40 1012.71 1013.21 1013.54 1013.99 1014.35 1014.51 1014.66 1014.84 1015.08 1015.60 1016.01 1016.25 1016.41 1016.68 1016.93 1017.03 1017.13 1017.19 1017.17 1016.98 1016.78 1016.33 1016.64 1017.10 1017.54 1017.48 1017.43 1017.43 1017.42 1017.23
1006.93 1008.22 1008.74 1009.60 1009.93 1010.45 1010.91 1011.25 1011.45 1011.62 1011.91 1012.28 1012.61 1012.92 1013.29 1013.61 1014.05 1014.40 1014.71 1014.90 1015.02 1015.39 1015.84 1016.28 1016.54 1016.73 1017.01 1017.22 1017.34 1017.46 1017.48 1017.26 1017.07 1016.69 1016.82 1017.01 1017.32 1017.90 1017.90 1017.82 1017.73 1017.86 1017.88
1007.30 1008.20 1009.46 1009.94 1010.18 1010.61 1011.07 1011.39 1011.66 1011.82 1012.04 1012.45 1012.72 1013.04 1013.45 1013.72 1014.17 1014.62 1014.89 1015.19 1015.36 1015.71 1016.12 1016.37 1016.69 1016.93 1017.14 1017.37 1017.52 1017.67 1017.68 1017.50 1017.41 1016.98 1017.17 1017.49 1017.83 1018.10 1018.14 1018.20 1018.22 1018.23 1018.23
1007.70 1008.30 1009.37 1010.08 1010.48 1010.71 1011.28 1011.57 1011.79 1012.01 1012.21 1012.60 1012.90 1013.28 1013.62 1013.97 1014.37 1014.79 1015.16 1015.40 1015.77 1016.12 1016.36 1016.49 1016.78 1017.08 1017.30 1017.47 1017.65 1017.81 1017.80 1017.58 1016.97 1017.17 1017.25 1017.66 1018.14 1018.29 1018.39 1018.46 1018.50 1018.52 1018.50
1007.83 1008.54 1009.09 1010.33 1010.69 1010.95 1011.30 1011.74 1011.99 1012.15 1012.33 1012.60 1013.12 1013.48 1013.78 1014.34 1014.69 1015.06 1015.41 1015.68 1015.98 1016.40 1016.66 1016.80 1016.99 1017.20 1017.41 1017.61 1017.79 1017.94 1017.91 1017.72 1017.14 1017.33 1017.47 1018.01 1018.41 1018.46 1018.58 1018.65 1018.68 1018.73 1018.75
1008.21 1008.75 1009.02 1010.12 1010.85 1011.27 1011.52 1011.87 1012.15 1012.34 1012.59 1012.93 1013.38 1013.76 1014.09 1014.76 1015.19 1015.41 1015.72 1016.02 1016.25 1016.64 1016.92 1017.12 1017.26 1017.44 1017.65 1017.77 1017.93 1018.10 1018.05 1017.87 1017.35 1017.48 1017.39 1018.03 1018.53 1018.57 1018.73 1018.89 1018.94 1018.96 1018.95
1008.98 1008.70 1009.26 1010.06 1010.71 1011.03 1011.70 1012.04 1012.36 1012.66 1012.98 1013.36 1013.73 1014.10 1014.63 1015.13 1015.60 1015.92 1016.09 1016.32 1016.62 1016.93 1017.22 1017.41 1017.56 1017.70 1017.88 1018.06 1018.16 1018.23 1018.21 1018.00 1017.32 1017.62 1017.61 1018.42 1018.69 1018.73 1018.84 1018.91 1018.96 1019.05 1019.12
1009.39 1009.38 1010.58 1010.30 1010.24 1010.51 1011.34 1012.00 1012.56 1012.88 1013.22 1013.62 1014.04 1014.48 1014.84 1015.45 1015.84 1016.20 1016.24 1016.65 1016.94 1017.21 1017.50 1017.63 1017.77 1017.94 1018.07 1018.18 1018.27 1018.37 1018.33 1017.38 1017.21 1017.31 1017.42 1018.43 1018.73 1018.80 1018.94 1019.03 1019.08 1019.12 1019.15
1008.22 1010.88 1011.33 1010.62 1010.26 1009.90 1010.79 1011.81 1012.11 1012.72 1012.96 1013.21 1013.82 1014.37 1014.47 1015.23 1015.46 1015.55 1016.53 1016.96 1017.20 1017.51 1017.69 1017.74 1017.86 1017.96 1018.02 1017.42 1017.95 1018.19 1017.83 1017.15 1017.20 1017.32 1017.61 1018.40 1018.66 1018.73 1018.83 1019.02 1019.06 1019.10 1019.13
1009.11 1010.28 1012.00 1010.82 1010.07 1009.29 1010.30 1011.12 1011.39 1012.29 1012.49 1012.75 1013.45 1014.00 1013.91 1014.51 1015.32 1015.73 1016.63 1016.97 1017.19 1017.58 1017.49 1017.73 1017.82 1017.54 1017.05 1016.85 1016.92 1016.96 1017.03 1017.19 1017.04 1017.27 1017.91 1018.35 1018.59 1018.70 1018.64 1018.66 1018.83 1018.91 1018.97
1009.88 1010.46 1009.58 1010.67 1009.79 1008.67 1009.71 1010.53 1010.61 1011.31 1011.79 1012.20 1013.10 1013.40 1013.66 1014.08 1014.94 1015.19 1015.80 1016.20 1016.41 1016.83 1016.48 1016.74 1016.66 1016.56 1016.86 1016.95 1016.78 1016.75 1016.88 1017.02 1017.04 1017.08 1017.60 1018.19 1018.44 1018.55 1018.64 1018.61 1018.68 1018.78 1018.88
1008.22 1009.29 1008.16 1009.58 1009.89 1008.80 1009.61 1010.22 1010.47 1010.78 1011.34 1012.14 1012.72 1013.27 1013.76 1014.24 1014.62 1014.93 1015.22 1015.68 1015.95 1016.08 1016.24 1016.34 1016.52 1016.46 1016.65 1016.57 1016.65 1016.74 1016.68 1016.69 1016.73 1016.86 1017.12 1017.86 1018.26 1018.47 1018.59 1018.63 1018.59 1018.49 1018.43
1006.79 1007.81 1008.30 1009.09 1010.12 1009.47 1009.70 1010.26 1010.78 1010.74 1011.11 1011.97 1012.79 1013.42 1013.80 1014.21 1014.53 1014.92 1015.11 1015.47 1015.77 1015.99 1016.14 1016.18 1016.29 1016.47 1016.46 1016.47 1016.51 1016.49 1016.53 1016.43 1016.59 1016.70 1016.86 1017.42 1017.67 1018.07 1018.27 1018.39 1018.33 1018.21 1018.06
1006.97 1006.76 1008.46 1009.39 1010.72 1009.85 1010.39 1010.47 1010.59 1010.81 1011.07 1011.88 1012.77 1013.39 1013.67 1014.10 1014.45 1014.72 1014.88 1015.37 1015.50 1015.68 1015.87 1016.11 1016.15 1016.35 1016.43 1016.35 1016.50 1016.36 1016.41 1016.32 1016.27 1016.35 1016.50 1016.67 1017.15 1017.56 1017.61 1017.68 1017.91 1018.02 1017.86
1006.98 1007.07 1007.41 1009.71 1010.69 1009.93 1010.17 1010.76 1010.54 1010.74 1011.31 1011.80 1012.45 1012.89 1013.35 1013.75 1014.21 1014.58 1014.76 1014.98 1015.14 1015.45 1015.84 1015.96 1016.16 1016.40 1016.48 1016.39 1016.41 1016.31 1016.40 1016.29 1016.14 1016.10 1016.18 1016.45 1016.70 1016.71 1017.35 1017.41 1017.56 1017.70 1017.71
1007.26 1007.56 1008.04 1009.44 1010.16 1009.72 1010.16 1010.72 1010.60 1010.70 1011.31 1011.59 1012.11 1012.69 1013.14 1013.50 1013.84 1014.04 1014.37 1014.58 1014.94 1015.41 1015.77 1015.94 1016.03 1016.17 1016.08 1016.17 1016.24 1016.11 1015.99 1016.17 1016.21 1016.02 1015.91 1015.95 1016.25 1016.76 1017.13 1017.12 1017.27 1017.31 1017.40
1007.62 1007.88 1008.50 1009.39 1009.74 1009.84 1010.18 1011.15 1011.09 1011.08 1011.28 1011.32 1011.88 1012.29 1012.81 1013.16 1013.67 1013.88 1014.20 1014.38 1014.76 1015.30 1015.50 1015.73 1015.84 1015.94 1016.08 1015.90 1015.91 1015.95 1016.01 1016.27 1016.11 1015.96 1015.81 1015.91 1016.29 1016.80 1017.17 1017.32 1017.14 1016.87 1017.15
1007.78 1008.44 1008.74 1009.72 1009.77 1009.44 1009.90 1010.37 1010.87 1011.32 1011.44 1011.48 1012.02 1012.26 1012.64 1012.97 1013.35 1013.79 1014.43 1014.57 1014.71 1015.03 1015.32 1015.56 1015.76 1015.90 1016.00 1016.10 1016.21 1016.22 1016.03 1015.93 1015.79 1015.73 1015.88 1016.17 1016.38 1016.73 1016.89 1017.10 1017.11 1017.00 1016.84
1007.60 1008.29 1008.67 1009.37 1009.92 1009.60 1009.72 1010.17 1010.62 1011.05 1011.56 1011.83 1012.10 1012.27 1012.57 1012.84 1013.31 1013.86 1014.54 1014.78 1015.08 1015.41 1015.68 1016.08 1016.46 1016.22 1015.99 1016.06 1016.46 1016.44 1016.11 1015.83 1015.45 1016.16 1016.33 1016.42 1016.61 1016.75 1016.90 1016.94 1017.23 1017.45 1017.07
1007.41 1008.22 1008.73 1009.00 1009.69 1009.77 1010.34 1010.44 1011.15 1011.59 1011.60 1012.25 1012.34 1012.44 1012.56 1012.86 1013.23 1013.84 1014.16 1014.72 1015.22 1015.55 1015.93 1015.76 1016.59 1016.76 1016.98 1016.39 1016.70 1016.62 1016.40 1016.10 1016.34 1015.92 1016.19 1016.44 1016.61 1016.68 1016.79 1016.90 1017.06 1017.30 1017.39
1007.54 1008.39 1009.10 1008.94 1009.72 1010.23 1010.91 1011.19 1011.73 1011.99 1012.06 1012.38 1012.33 1012.78 1012.88 1013.12 1013.22 1014.11 1014.33 1014.36 1014.90 1015.28 1015.73 1016.02 1016.33 1016.66 1017.24 1017.07 1016.83 1016.76 1016.67 1016.90 1017.13 1016.93 1016.79 1016.87 1016.69 1016.93 1016.83 1017.11 1017.07 1017.27 1017.63
1008.15 1008.76 1009.13 1009.87 1010.07 1009.99 1010.61 1011.07 1010.93 1011.83 1012.59 1012.99 1013.26 1013.44 1012.93 1012.60 1014.07 1013.91 1014.24 1014.88 1014.73 1014.79 1014.76 1015.69 1016.02 1016.11 1016.51 1017.03 1016.86 1017.16 1017.33 1017.40 1017.51 1017.46 1017.02 1017.05 1016.76 1016.98 1016.96 1017.40 1017.65 1017.50 1017.44
1008.97 1009.32 1009.45 1009.68 1009.79 1010.20 1010.59 1011.14 1011.84 1012.09 1012.65 1012.79 1013.01 1013.17 1013.42 1013.65 1013.56 1013.61 1013.93 1014.27 1014.36 1014.52 1013.91 1014.85 1015.66 1015.84 1016.23 1016.49 1016.52 1016.61 1016.69 1016.83 1016.73 1016.76 1017.00 1017.00 1016.93 1016.89 1017.16 1017.52 1017.68 1017.74 1017.80
Wind_Speed
15 21 19 19 17 16 15 14 13 12 12 16 17 18 18 17 17 16 15 13 15 14 15 14 16 14 17 18 17 16 15 14 14 15 15 14 14 14 13 13 8 12 12
17 21 21 19 18 16 15 14 12 12 13 17 17 19 19 18 17 17 15 15 14 15 16 15 16 12 17 16 15 14 13 12 9 7 12 12 11 12 15 16 13 12 12
18 18 21 19 18 16 14 13 13 14 13 17 19 20 20 18 17 17 16 14 14 16 16 16 14 13 16 14 13 12 12 10 5 3 5 9 10 11 12 13 12 13 12
17 17 19 19 18 16 15 14 13 14 14 17 19 19 20 20 18 17 16 15 15 16 15 14 12 13 13 12 12 12 11 6 1 6 6 10 10 10 11 11 12 13 15
18 14 16 18 18 17 16 15 14 13 14 17 18 19 20 19 19 18 15 13 15 15 14 12 12 13 12 11 11 11 9 3 3 5 9 8 8 9 10 11 11 12 13
13 12 18 17 17 17 16 14 13 13 15 17 18 19 19 20 18 17 15 14 15 16 12 13 14 13 12 11 11 9 4 2 8 8 9 10 10 10 10 10 10 10 11
12 11 18 18 16 16 15 14 13 12 14 16 18 20 19 18 19 18 15 15 14 14 13 13 14 12 11 11 10 8 3 5 6 7 8 9 9 10 10 9 9 9 9
14 13 16 15 16 15 16 14 13 12 13 17 19 19 19 16 16 17 14 14 15 13 13 12 12 11 10 10 9 7 2 5 4 6 7 8 7 8 8 8 8 8 8
9 10 15 15 14 12 15 14 12 11 13 16 17 17 18 16 14 16 12 13 14 13 12 11 11 10 8 8 7 5 1 6 4 4 5 7 5 7 7 6 6 6 6
8 7 10 12 15 15 14 13 11 10 12 13 14 15 15 13 12 11 10 10 11 11 10 9 9 8 7 6 5 4 3 7 1 3 3 6 4 5 5 4 4 4 5
8 11 9 12 15 16 16 12 11 10 10 11 13 14 14 8 10 12 10 9 10 10 9 8 8 7 6 5 4 2 5 4 3 2 3 9 4 3 3 2 1 2 2
11 4 8 12 12 18 13 15 14 12 12 12 13 13 10 12 12 10 10 9 10 8 7 8 7 6 7 7 5 6 6 2 1 1 5 8 5 3 3 3 3 3 3
8 5 9 16 11 19 15 10 9 8 9 9 13 12 12 10 9 8 7 6 7 7 6 7 7 6 8 2 3 5 1 2 3 2 7 7 5 5 6 6 7 7 7
20 19 8 18 12 17 12 10 12 10 9 9 12 16 10 7 9 9 7 8 7 7 8 7 5 5 5 5 5 5 4 4 3 2 7 9 6 6 7 8 8 9 9
17 18 7 12 9 11 14 9 9 10 10 10 9 10 9 8 8 7 7 6 6 6 5 6 5 4 5 6 5 5 5 5 5 2 2 11 8 6 6 7 10 11 12
14 10 5 11 7 10 11 10 10 7 9 10 9 8 12 7 7 6 6 6 6 5 5 4 5 4 5 5 6 5 5 4 3 3 3 6 11 9 7 8 9 12 12
13 12 7 4 12 11 13 11 9 9 10 8 9 12 11 9 7 7 7 6 6 6 6 5 4 4 4 3 5 5 4 5 4 5 4 3 6 10 11 10 9 10 11
7 9 17 9 14 10 7 10 7 7 6 7 8 9 12 11 9 8 6 6 6 5 5 5 5 5 5 5 5 5 5 5 6 6 3 1 4 3 6 10 7 6 9
8 8 11 11 15 12 9 6 6 8 7 8 6 7 10 11 11 9 6 5 6 4 5 5 5 5 5 5 6 6 4 2 4 5 7 4 2 3 4 4 7 7 7
9 7 10 6 15 13 9 7 6 5 7 7 7 7 10 8 10 6 6 6 6 5 6 5 7 6 6 5 6 5 3 4 6 5 5 5 4 4 3 4 4 3 7
13 14 13 12 8 10 10 10 7 7 5 4 3 6 10 9 9 8 4 4 3 5 0 5 5 7 5 6 1 4 5 8 9 2 3 2 2 2 3 3 3 4 1
15 15 13 15 11 8 5 3 6 7 6 6 5 8 9 8 7 7 7 5 4 1 1 3 5 4 4 1 3 2 4 5 4 3 2 1 2 3 4 3 5 5 4
13 15 13 12 9 3 7 5 3 2 1 6 7 6 5 5 6 6 8 6 5 5 5 5 1 3 5 1 4 3 2 2 2 1 1 1 4 3 2 2 3 3 4
7 3 7 10 8 8 5 7 10 4 2 2 3 3 2 4 4 7 4 8 8 6 6 4 5 4 3 2 1 1 4 4 1 3 1 2 2 4 3 3 2 3 2
5 1 2 5 4 5 4 4 6 3 2 3 3 6 4 2 10 8 8 7 7 8 8 9 7 6 6 5 3 1 2 1 3 4 4 3 1 2 1 2 4 4 2
1 2 5 5 3 3 4 4 5 8 10 9 9 7 7 8 7 6 8 8 10 9 11 10 9 9 9 6 5 5 4 3 4 4 5 4 3 2 1 2 2 3 3
Wind_Direction
145 149 159 155 161 160 163 159 160 159 153 151 149 146 144 140 133 132 130 127 155 114 115 111 103 104 94 87 88 87 83 79 79 78 72 60 73 64 57 36 89 70 67
143 153 159 156 161 165 164 163 161 160 160 153 150 149 147 143 136 135 134 128 125 114 109 108 102 109 97 94 88 89 87 83 84 89 107 85 60 64 60 48 52 69 68
152 158 163 159 157 165 164 161 164 163 169 157 155 152 150 143 138 138 139 132 129 118 109 114 119 102 98 91 92 91 89 91 105 157 217 82 77 61 59 57 55 65 67
146 154 168 159 156 161 162 157 162 168 172 163 159 153 153 142 142 144 143 141 127 116 122 113 114 97 96 96 94 94 94 95 120 278 93 83 81 63 61 60 53 44 64
135 164 162 162 156 160 162 157 159 167 170 166 163 157 151 143 145 146 143 142 118 115 112 121 122 118 107 101 98 95 99 123 295 61 75 71 81 71 60 41 62 56 49
133 167 141 163 158 157 160 157 153 164 169 170 167 156 151 141 145 143 145 132 118 112 124 129 132 119 115 109 106 103 107 302 288 92 100 76 71 75 70 62 58 56 54
158 150 158 159 161 155 159 155 151 151 164 173 165 152 141 139 147 146 128 125 120 120 125 122 125 128 123 119 116 112 96 307 96 94 88 83 78 77 73 70 64 57 57
176 155 159 162 165 159 158 154 153 148 155 157 154 143 131 138 142 144 135 126 123 133 134 132 131 132 134 128 124 122 126 312 109 92 89 87 87 84 78 75 70 65 60
171 146 168 170 169 165 152 151 150 147 145 146 144 138 127 129 137 148 144 136 137 143 138 135 131 128 127 133 134 131 136 300 289 89 121 110 102 91 85 77 72 68 65
1 178 160 166 176 173 166 147 145 143 135 133 136 121 117 120 130 139 142 141 143 142 139 135 131 128 126 127 127 145 198 269 224 129 112 100 106 105 105 99 91 78 69
317 7 307 177 186 179 165 149 139 140 135 135 120 121 126 131 151 149 148 142 133 134 142 138 132 129 128 129 141 178 245 242 142 137 124 131 148 151 137 133 118 107 97
285 251 297 213 206 184 153 161 157 155 163 166 157 156 159 160 154 161 127 134 126 136 141 147 148 161 204 177 174 197 238 161 207 154 99 138 172 213 198 219 226 227 214
221 217 243 247 216 187 152 180 157 167 167 164 164 172 171 165 147 148 147 160 159 177 177 178 178 206 209 221 174 213 228 256 234 182 110 146 192 227 237 234 230 236 233
181 213 274 248 220 184 154 195 154 168 169 165 165 180 160 152 168 164 161 172 174 178 196 195 199 193 201 220 225 234 196 221 230 170 136 158 194 227 247 255 264 256 249
181 211 152 198 242 148 155 180 145 170 162 159 167 163 166 161 169 167 163 170 184 189 191 195 221 206 218 218 222 237 230 224 220 202 182 165 188 223 248 264 273 274 271
161 172 132 150 218 185 156 173 160 165 167 151 159 175 168 164 165 174 169 180 182 184 207 218 211 224 227 216 230 232 249 243 258 242 264 177 181 203 227 252 267 269 268
178 133 117 103 204 187 183 179 163 180 163 155 165 171 172 166 166 171 176 176 190 191 207 205 223 251 242 240 240 239 229 253 250 253 204 248 182 198 205 219 244 277 291
174 159 138 154 216 188 184 190 175 171 167 172 167 175 174 173 168 175 186 188 190 186 205 202 209 211 225 226 233 222 226 231 244 258 268 286 241 286 192 226 240 262 284
142 136 140 163 198 177 180 184 181 172 176 182 174 175 184 178 180 181 188 194 185 201 201 219 216 225 220 219 229 236 234 10 314 262 247 251 283 344 329 322 211 244 254
147 146 149 194 194 175 154 172 173 166 188 182 170 185 174 182 189 188 192 199 190 194 213 210 225 217 236 236 229 229 186 242 244 241 293 352 338 20 313 330 323 324 209
165 171 176 185 235 200 176 168 160 170 188 156 131 175 171 187 181 184 195 213 243 226 18 315 227 243 217 248 183 234 233 236 226 324 358 317 343 250 314 324 324 334 18
187 166 186 184 210 211 190 165 178 166 184 175 178 172 185 178 175 181 191 203 194 123 229 314 328 317 270 226 236 283 233 241 143 138 199 261 295 315 293 349 343 348 342
177 173 190 204 191 192 206 153 122 266 22 196 206 196 181 163 163 186 186 178 184 179 203 152 182 66 290 227 212 249 225 180 349 323 293 257 317 295 300 336 297 321 352
141 131 181 225 229 188 223 207 180 156 83 290 222 200 179 198 168 207 188 176 175 173 176 149 161 157 160 173 81 5 69 67 112 283 78 325 295 292 306 324 324 337 323
74 347 336 148 264 311 320 328 43 30 206 256 224 228 224 156 218 212 181 219 183 192 160 170 167 162 186 194 186 151 8 145 198 212 295 250 206 237 174 313 310 295 318
34 215 232 173 184 262 295 334 224 232 238 241 211 210 225 207 196 200 204 201 200 200 162 170 186 184 196 204 205 208 203 186 194 196 218 257 256 269 73 250 293 318 16